Location: Unspecified
(42.3650°N, 71.1030°W)
Time: 13:22:41
(UTC+00:00)

Courier 1B - Pass Details

Date: 25 June 2024
Orbit: 962 x 1209 km, 28.3° (Epoch: 25 July)

Event Time Altitude Azimuth Distance (km) Brightness Sun altitude
Rises 07:53:06 0° 255° (WSW) 3,889 - -11.5°
Reaches altitude 10° 07:56:33 10° 240° (WSW) 2,976 - -11.1°
Exits shadow 07:57:37 13° 233° (SW) 2,750 9.2 -11.0°
Maximum altitude 08:01:44 21° 195° (SSW) 2,332 9.0 -10.4°
Drops below altitude 10° 08:07:05 10° 150° (SSE) 3,086 10.0 -9.7°
Sets 08:10:45 0° 135° (SE) 4,075 10.8 -9.2°
